User: anonymous   Login
Location: Colonie
(42.7179°N, 73.8335°W)
Time: 21:14:33
(UTC+00:00)
Language:

Cosmos 2297 Rocket - Orbit

View from above orbital plane
View from above orbital plane
View from above satellite
View from above satellite

Ground track
Ground track

The orbit data is extracted from the following two-line orbital elements,

1 23405U 94077B   21016.30693460  .00000042  00000-0  46162-4 0  9991
2 23405  70.9836 342.9128 0002106 194.6460 165.4602 14.15231440350464
Epoch (UTC): 16 January 2021 07:21:59
Eccentricity: 0.0002106
inclination: 70.9836°
perigee height: 840 km
apogee height: 843 km
right ascension of ascending node: 342.9128°
argument of perigee: 194.6460°
revolutions per day: 14.15231440
mean anomaly at epoch: 165.4602°
orbit number at epoch: 35046

The dashed part of the orbit path shows where the satellite is in the earth's shadow,  

DLR